When you browse on this site, cookies collect data to enhance your experience and personalize the content and advertising you see.
Visit our Privacy Policy to learn more. By continuing to use the site, you agree to this use of cookies and data.
  • In Schweiz
  • Länderverzeichnis
  • Für 7 Tage
  • Wassertemperatur
  • Satellitenkarten
  • Wetterkarte
  • Widgets
  • user-avatar
    Anmelden

    Stündliche Wetter Wadshir

    Heute, 21 Januar, Montag

    Zeit Temperatur Niederschläge Wind Luftdruck Luftfeuchtigkeit
    00:00 +35°C° 0 mm 6 m/S 736 mmHg 21%
    01:00 +34°C° 0 mm 6 m/S 736 mmHg 29%
    02:00 +32°C° 0 mm 7 m/S 736 mmHg 38%
    03:00 +30°C° 0 mm 7 m/S 736 mmHg 46%
    04:00 +29°C° 0 mm 7 m/S 736 mmHg 51%
    05:00 +29°C° 0 mm 7 m/S 736 mmHg 55%
    06:00 +28°C° 0 mm 6 m/S 737 mmHg 60%
    07:00 +29°C° 0 mm 6 m/S 737 mmHg 56%
    08:00 +30°C° 0 mm 6 m/S 737 mmHg 52%
    09:00 +32°C° 0 mm 6 m/S 738 mmHg 48%
    10:00 +33°C° 0 mm 5 m/S 738 mmHg 42%
    11:00 +35°C° 0 mm 5 m/S 738 mmHg 36%
    12:00 +37°C° 0 mm 4 m/S 738 mmHg 30%
    13:00 +38°C° 0 mm 4 m/S 737 mmHg 26%
    14:00 +40°C° 0 mm 4 m/S 736 mmHg 23%
    15:00 +41°C° 0 mm 4 m/S 735 mmHg 19%
    16:00 +41°C° 0 mm 4 m/S 735 mmHg 18%
    17:00 +41°C° 0 mm 5 m/S 734 mmHg 18%
    18:00 +41°C° 0 mm 5 m/S 734 mmHg 17%
    19:00 +40°C° 0 mm 5 m/S 734 mmHg 18%
    20:00 +39°C° 0 mm 5 m/S 735 mmHg 19%
    21:00 +37°C° 0 mm 5 m/S 735 mmHg 19%
    22:00 +36°C° 0 mm 5 m/S 735 mmHg 20%
    23:00 +36°C° 0 mm 5 m/S 735 mmHg 21%

    Morgen, 22 Januar, Dienstag

    Zeit Temperatur Niederschläge Wind Luftdruck Luftfeuchtigkeit
    00:00 +35°C° 0 mm 5 m/S 736 mmHg 22%
    01:00 +33°C° 0 mm 5 m/S 736 mmHg 32%
    02:00 +32°C° 0 mm 6 m/S 735 mmHg 43%
    03:00 +29°C° 0 mm 6 m/S 735 mmHg 53%
    04:00 +28°C° 0 mm 6 m/S 735 mmHg 57%
    05:00 +28°C° 0 mm 5 m/S 736 mmHg 62%
    06:00 +27°C° 0 mm 5 m/S 736 mmHg 66%
    07:00 +28°C° 0 mm 5 m/S 737 mmHg 63%
    08:00 +29°C° 0 mm 5 m/S 737 mmHg 60%
    09:00 +29°C° 0 mm 4 m/S 738 mmHg 58%
    10:00 +32°C° 0 mm 4 m/S 738 mmHg 50%
    11:00 +33°C° 0 mm 4 m/S 737 mmHg 43%
    12:00 +35°C° 0 mm 4 m/S 737 mmHg 36%
    13:00 +36°C° 0 mm 4 m/S 736 mmHg 32%
    14:00 +37°C° 0 mm 4 m/S 735 mmHg 29%
    15:00 +38°C° 0 mm 4 m/S 735 mmHg 25%
    16:00 +38°C° 0 mm 4 m/S 734 mmHg 24%
    17:00 +38°C° 0 mm 3 m/S 734 mmHg 22%
    18:00 +39°C° 0 mm 3 m/S 734 mmHg 21%
    19:00 +38°C° 0 mm 3 m/S 734 mmHg 21%
    20:00 +37°C° 0 mm 3 m/S 734 mmHg 22%
    21:00 +37°C° 0 mm 3 m/S 735 mmHg 22%
    22:00 +36°C° 0 mm 3 m/S 735 mmHg 22%
    23:00 +35°C° 0 mm 3 m/S 735 mmHg 22%

    übermorgen, 23 Januar, Mittwoch

    Zeit Temperatur Niederschläge Wind Luftdruck Luftfeuchtigkeit
    00:00 +35°C° 0 mm 4 m/S 736 mmHg 23%
    01:00 +33°C° 0 mm 5 m/S 735 mmHg 35%
    02:00 +30°C° 0 mm 6 m/S 735 mmHg 47%
    03:00 +29°C° 0 mm 7 m/S 735 mmHg 60%
    04:00 +28°C° 0 mm 6 m/S 735 mmHg 62%
    05:00 +28°C° 0 mm 6 m/S 735 mmHg 65%
    06:00 +27°C° 0 mm 6 m/S 736 mmHg 68%
    07:00 +28°C° 0 mm 5 m/S 736 mmHg 64%
    08:00 +28°C° 0 mm 5 m/S 737 mmHg 61%
    09:00 +29°C° 0 mm 5 m/S 738 mmHg 58%
    10:00 +30°C° 0 mm 5 m/S 738 mmHg 51%
    11:00 +33°C° 0 mm 5 m/S 737 mmHg 43%
    12:00 +35°C° 0 mm 4 m/S 737 mmHg 36%
    13:00 +36°C° 0 mm 5 m/S 736 mmHg 32%
    14:00 +37°C° 0 mm 5 m/S 735 mmHg 27%
    15:00 +40°C° 0 mm 5 m/S 734 mmHg 22%
    16:00 +40°C° 0 mm 5 m/S 734 mmHg 21%
    17:00 +40°C° 0 mm 5 m/S 734 mmHg 20%
    18:00 +40°C° 0 mm 5 m/S 734 mmHg 19%
    19:00 +39°C° 0 mm 5 m/S 734 mmHg 20%
    20:00 +37°C° 0 mm 4 m/S 735 mmHg 20%
    21:00 +36°C° 0 mm 3 m/S 735 mmHg 21%
    22:00 +36°C° 0 mm 3 m/S 736 mmHg 22%
    23:00 +35°C° 0 mm 4 m/S 736 mmHg 23%

    24 Januar, Donnerstag

    Zeit Temperatur Niederschläge Wind Luftdruck Luftfeuchtigkeit
    00:00 +34°C° 0 mm 4 m/S 736 mmHg 24%
    01:00 +33°C° 0 mm 5 m/S 736 mmHg 37%
    02:00 +30°C° 0 mm 6 m/S 736 mmHg 50%
    03:00 +28°C° 0 mm 7 m/S 735 mmHg 63%
    04:00 +28°C° 0 mm 6 m/S 736 mmHg 63%
    05:00 +28°C° 0 mm 6 m/S 736 mmHg 63%
    06:00 +27°C° 0 mm 5 m/S 737 mmHg 63%
    07:00 +28°C° 0 mm 5 m/S 737 mmHg 61%
    08:00 +29°C° 0 mm 6 m/S 738 mmHg 58%
    09:00 +29°C° 0 mm 6 m/S 739 mmHg 55%
    10:00 +32°C° 0 mm 5 m/S 738 mmHg 48%
    11:00 +34°C° 0 mm 5 m/S 738 mmHg 40%
    12:00 +36°C° 0 mm 5 m/S 737 mmHg 33%
    13:00 +37°C° 0 mm 4 m/S 736 mmHg 29%
    14:00 +38°C° 0 mm 4 m/S 735 mmHg 25%
    15:00 +40°C° 0 mm 4 m/S 734 mmHg 21%
    16:00 +40°C° 0 mm 4 m/S 734 mmHg 20%
    17:00 +40°C° 0 mm 4 m/S 734 mmHg 19%
    18:00 +40°C° 0 mm 4 m/S 734 mmHg 18%
    19:00 +38°C° 0 mm 4 m/S 735 mmHg 19%
    20:00 +37°C° 0 mm 4 m/S 735 mmHg 20%
    21:00 +36°C° 0 mm 3 m/S 736 mmHg 22%
    22:00 +35°C° 0 mm 3 m/S 736 mmHg 23%
    23:00 +35°C° 0 mm 3 m/S 736 mmHg 24%

    25 Januar, Freitag

    Zeit Temperatur Niederschläge Wind Luftdruck Luftfeuchtigkeit
    00:00 +34°C° 0 mm 3 m/S 736 mmHg 25%
    01:00 +33°C° 0 mm 4 m/S 736 mmHg 34%
    02:00 +32°C° 0 mm 5 m/S 735 mmHg 43%
    03:00 +29°C° 0 mm 5 m/S 735 mmHg 52%
    04:00 +29°C° 0 mm 5 m/S 736 mmHg 56%
    05:00 +28°C° 0 mm 5 m/S 736 mmHg 61%
    06:00 +27°C° 0 mm 5 m/S 737 mmHg 65%
    07:00 +28°C° 0 mm 5 m/S 738 mmHg 63%
    08:00 +29°C° 0 mm 5 m/S 738 mmHg 60%
    09:00 +29°C° 0 mm 5 m/S 739 mmHg 57%
    10:00 +32°C° 0 mm 5 m/S 739 mmHg 50%
    11:00 +34°C° 0 mm 4 m/S 738 mmHg 42%
    12:00 +35°C° 0 mm 4 m/S 738 mmHg 35%
    13:00 +36°C° 0 mm 4 m/S 737 mmHg 31%
    14:00 +37°C° 0 mm 4 m/S 736 mmHg 27%
    15:00 +38°C° 0 mm 3 m/S 735 mmHg 23%
    16:00 +39°C° 0 mm 3 m/S 735 mmHg 22%
    17:00 +39°C° 0 mm 3 m/S 735 mmHg 21%
    18:00 +40°C° 0 mm 4 m/S 734 mmHg 20%
    19:00 +38°C° 0 mm 3 m/S 735 mmHg 21%
    20:00 +37°C° 0 mm 3 m/S 735 mmHg 22%
    21:00 +37°C° 0 mm 3 m/S 736 mmHg 23%
    22:00 +36°C° 0 mm 3 m/S 736 mmHg 25%
    23:00 +35°C° 0 mm 4 m/S 736 mmHg 27%

    26 Januar, Samstag

    Zeit Temperatur Niederschläge Wind Luftdruck Luftfeuchtigkeit
    00:00 +34°C° 0 mm 5 m/S 736 mmHg 30%
    01:00 +32°C° 0 mm 5 m/S 736 mmHg 43%
    02:00 +30°C° 0 mm 6 m/S 736 mmHg 55%
    03:00 +28°C° 0 mm 6 m/S 735 mmHg 68%
    04:00 +28°C° 0 mm 6 m/S 736 mmHg 69%
    05:00 +27°C° 0 mm 6 m/S 736 mmHg 69%
    06:00 +27°C° 0 mm 5 m/S 737 mmHg 70%
    07:00 +28°C° 0 mm 5 m/S 738 mmHg 66%
    08:00 +28°C° 0 mm 5 m/S 738 mmHg 62%
    09:00 +29°C° 0 mm 5 m/S 739 mmHg 59%
    10:00 +32°C° 0 mm 5 m/S 738 mmHg 50%
    11:00 +34°C° 0 mm 5 m/S 738 mmHg 42%
    12:00 +36°C° 0 mm 5 m/S 738 mmHg 34%
    13:00 +37°C° 0 mm 5 m/S 737 mmHg 29%
    14:00 +38°C° 0 mm 4 m/S 736 mmHg 25%
    15:00 +40°C° 0 mm 4 m/S 735 mmHg 21%
    16:00 +40°C° 0 mm 4 m/S 735 mmHg 20%
    17:00 +40°C° 0 mm 4 m/S 735 mmHg 20%
    18:00 +40°C° 0 mm 4 m/S 735 mmHg 19%
    19:00 +38°C° 0 mm 4 m/S 735 mmHg 20%
    20:00 +37°C° 0 mm 3 m/S 736 mmHg 21%
    21:00 +36°C° 0 mm 3 m/S 736 mmHg 22%
    22:00 +36°C° 0 mm 3 m/S 736 mmHg 23%
    23:00 +35°C° 0 mm 3 m/S 736 mmHg 24%
    Mehr zeigen